This is the latest recevied weather packets stored in our database for station/object NZ3C. If no packets are shown the sender has not sent any weather packets the latest 10 day(s).
| Time | Temp. | Humidity | Pressure | Rain* | Wind** | Luminosity | Snow |
|---|---|---|---|---|---|---|---|
| 1777158899 | 27.78° C | 39% | 1008.3 hPa | 0 mm | - | 16 W/m² | - |
| 1777158597 | 27.78° C | 39% | 1008.5 hPa | 0 mm | - | 18 W/m² | - |
| 1777158293 | 27.78° C | 39% | 1008.4 hPa | 0 mm | - | 20 W/m² | - |
| 1777157990 | 27.78° C | 39% | 1008.2 hPa | 0 mm | - | 29 W/m² | - |
| 1777157686 | 28.33° C | 39% | 1008.2 hPa | 0 mm | - | 40 W/m² | - |
| 1777157383 | 28.33° C | 40% | 1008.2 hPa | 0 mm | - | 42 W/m² | - |
| 1777157077 | 28.33° C | 40% | 1008 hPa | 0 mm | - | 38 W/m² | - |
| 1777156772 | 28.89° C | 39% | 1008.1 hPa | 0 mm | - | 32 W/m² | - |
| 1777156468 | 29.44° C | 36% | 1008 hPa | 0 mm | - | 40 W/m² | - |
| 1777156165 | 29.44° C | 33% | 1008 hPa | 0 mm | - | 56 W/m² | - |
| 1777155862 | 29.44° C | 33% | 1007.7 hPa | 0 mm | - | 67 W/m² | - |
| 1777155562 | 29.44° C | 33% | 1007.6 hPa | 0 mm | - | 65 W/m² | - |
| 1777155260 | 30° C | 33% | 1007.7 hPa | 0 mm | - | 67 W/m² | - |
| 1777154957 | 30° C | 32% | 1007.7 hPa | 0 mm | - | 73 W/m² | - |
| 1777154654 | 30° C | 32% | 1007.8 hPa | 0 mm | - | 100 W/m² | - |
| 1777154350 | 30.56° C | 32% | 1007.6 hPa | 0 mm | - | 126 W/m² | - |
| 1777154045 | 30.56° C | 31% | 1007.6 hPa | 0 mm | - | 130 W/m² | - |
| 1777153741 | 30.56° C | 32% | 1007.7 hPa | 0 mm | - | 120 W/m² | - |
| 1777153438 | 30.56° C | 31% | 1007.6 hPa | 0 mm | - | 121 W/m² | - |
| 1777153134 | 30.56° C | 31% | 1007.5 hPa | 0 mm | - | 161 W/m² | - |
| 1777152830 | 30.56° C | 31% | 1007.7 hPa | 0 mm | - | 149 W/m² | - |
| 1777152527 | 30.56° C | 31% | 1007.6 hPa | 0 mm | - | 143 W/m² | - |
| 1777152224 | 31.11° C | 30% | 1007.5 hPa | 0 mm | - | 149 W/m² | - |
| 1777151918 | 31.11° C | 30% | 1007.7 hPa | 0 mm | - | 149 W/m² | - |
| 1777151615 | 31.67° C | 29% | 1007.5 hPa | 0 mm | - | 150 W/m² | - |
* Rain latest hour (hover to see other rain measurements)
** Current wind speed in m/s (hover to see current wind gust speed)